This is the latest recevied weather packets stored in our database for station/object W8RSN-13. If no packets are shown the sender has not sent any weather packets the latest 10 day(s).
| Time | Temp. | Humidity | Pressure | Rain* | Wind** | Luminosity | Snow |
|---|---|---|---|---|---|---|---|
| 1788542656 | 22.22° C | 61% | 1016 hPa | - | - | - | - |
| 1788542375 | 22.78° C | 61% | 1016 hPa | - | - | - | - |
| 1788542074 | 22.78° C | 60% | 1016.1 hPa | - | - | - | - |
| 1788541773 | 21.67° C | 61% | 1016.1 hPa | - | - | - | - |
| 1788541472 | 21.67° C | 61% | 1016.2 hPa | - | - | - | - |
| 1788541171 | 22.22° C | 61% | 1016 hPa | - | - | - | - |
| 1788540871 | 21.67° C | 62% | 1016 hPa | - | - | - | - |
| 1788540570 | 21.11° C | 63% | 1016.1 hPa | - | - | - | - |
| 1788540268 | 21.11° C | 64% | 1015.9 hPa | - | - | - | - |
| 1788539968 | 21.11° C | 65% | 1015.8 hPa | - | - | - | - |
| 1788539667 | 21.11° C | 65% | 1015.8 hPa | - | - | - | - |
| 1788539366 | 20.56° C | 66% | 1015.7 hPa | - | - | - | - |
| 1788539065 | 20.56° C | 67% | 1015.6 hPa | - | - | - | - |
| 1788538764 | 20.56° C | 68% | 1015.6 hPa | - | - | - | - |
| 1788538463 | 20° C | 68% | 1015.5 hPa | - | - | - | - |
| 1788538163 | 20° C | 69% | 1015.8 hPa | - | - | - | - |
| 1788537862 | 20° C | 70% | 1015.7 hPa | - | - | - | - |
| 1788537561 | 20° C | 70% | 1015.7 hPa | - | - | - | - |
| 1788537260 | 20° C | 72% | 1015.7 hPa | - | - | - | - |
| 1788536959 | 19.44° C | 72% | 1015.7 hPa | - | - | - | - |
| 1788536658 | 19.44° C | 73% | 1015.6 hPa | - | - | - | - |
| 1788536357 | 20° C | 71% | 1015.6 hPa | - | - | - | - |
| 1788536056 | 20° C | 70% | 1015.6 hPa | - | - | - | - |
| 1788535775 | 20° C | 72% | 1015.6 hPa | - | - | - | - |
| 1788535474 | 19.44° C | 73% | 1015.7 hPa | - | - | - | - |
* Rain since midnight (hover to see other rain measurements)
** Current wind speed in m/s (hover to see current wind gust speed)